Home > Time Zones > World Clock > Weather > Norway > Moss > Past weeks

Flag for Norway Weather past 2 weeks in Moss, Norway

Now
57 °F

Scattered clouds.


Feels Like: 57 °F
Forecast: 51 / 61 °F
Wind: 1 mph from North

Location: Rygge

Current Time: Aug 22, 2014 at 6:31:52 PM

Latest Report: Aug 22, 2014 at 5:50 PM


Visibility: N/A

Pressure: 29.65 "Hg

Humidity: 88%

Dew point: 54 °F

Location of MossLocation

Historic Weather in Moss — Graph

°F

Moss temperature yesterday

Maximum temperature yesterday: 66 °F (at 2:20 PM)
Minimum temperature yesterday: 52 °F (at 2:20 AM)
Average temperature yesterday: 59 °F

Past Weeks' High & Low Weather Summary

 TemperatureHumidityPressure
High75 °F (Aug 9, 2:50 PM)100% (Aug 8, 5:50 AM)29.92 "Hg (Aug 8, 5:50 AM)
Low48 °F (Aug 18, 7:20 AM)46% (Aug 15, 5:20 PM)29.18 "Hg (Aug 18, 12:50 PM)
Average60 °F80%29.57 "Hg
* Reported Aug 7 5:20 PM — Aug 22 5:20 PM, Moss, Weather by CustomWeather, © 2014

Note: Actual official high and low records may vary slightly from our data, if they occured in-between our weather recording intervals... More about our weather records

Advertising

Moss weather history for previous 24 hours

 ConditionsComfort  
Time TempWeatherWind HumidityBarometerVisibility
5:20 PM
Aug 22
55 °FLight rain. Broken clouds.2 mph94%29.65 "HgN/A
4:50 PM55 °FLight rain. Broken clouds.2 mph88%29.65 "Hg4 mi
4:20 PM55 °FBroken clouds.6 mph88%29.65 "HgN/A
3:50 PM55 °FRain. Partly sunny.5 mph94%29.65 "Hg3 mi
3:20 PM54 °FRain showers. Partly sunny.7 mph94%29.68 "Hg3 mi
2:50 PM54 °FRain. Partly sunny.8 mph94%29.68 "Hg5 mi
2:20 PM54 °FRain. Partly sunny.7 mph94%29.68 "HgN/A
1:50 PM55 °FScattered showers. Broken clouds.5 mph88%29.68 "HgN/A
1:20 PM57 °FRain showers. Broken clouds.10 mph82%29.68 "Hg6 mi
12:50 PM57 °FScattered showers. Partly sunny.8 mph82%29.68 "HgN/A
12:20 PM55 °FRain. Broken clouds.7 mph88%29.68 "Hg3 mi
11:50 AM55 °FBroken clouds.8 mph82%29.68 "HgN/A
11:20 AM55 °FSprinkles. Broken clouds.7 mph88%29.68 "HgN/A
10:50 AM54 °FLight rain. Broken clouds.6 mph94%29.68 "HgN/A
10:20 AM54 °FLight rain. Broken clouds.9 mph94%29.68 "HgN/A
9:50 AM54 °FLight rain. Broken clouds.8 mph94%29.68 "HgN/A
9:20 AM54 °FRain. Broken clouds.9 mph94%29.68 "HgN/A
8:50 AM54 °FScattered clouds.7 mph88%29.65 "HgN/A
8:20 AM55 °FScattered clouds.5 mph82%29.65 "HgN/A
7:50 AM54 °FScattered clouds.2 mph88%29.65 "HgN/A
7:20 AM52 °FScattered clouds.2 mph88%29.65 "HgN/A
6:50 AM52 °FScattered clouds.1 mph88%29.65 "HgN/A
6:20 AM55 °FPassing clouds.3 mph77%29.65 "HgN/A
5:50 AM55 °FCool.3 mph77%29.65 "HgN/A
5:20 AM55 °FCool.5 mph77%29.65 "HgN/A
4:50 AM55 °FCool.7 mph77%29.65 "HgN/A
4:20 AM55 °FCool.7 mph77%29.65 "HgN/A
3:50 AM55 °FCool.7 mph72%29.65 "HgN/A
3:20 AM55 °FClear.6 mph77%29.65 "Hg10 mi
2:50 AM55 °FPassing clouds.6 mph77%29.65 "HgN/A
2:20 AM55 °FClear.6 mph77%29.65 "Hg10 mi
1:50 AM55 °FClear.7 mph77%29.65 "Hg10 mi
1:20 AM55 °FClear.7 mph72%29.65 "Hg10 mi
12:50 AM55 °FClear.6 mph72%29.65 "Hg10 mi
12:20 AM57 °FPassing clouds.6 mph67%29.65 "HgN/A
11:50 PM
Aug 21
57 °FClear.6 mph67%29.65 "Hg10 mi
11:20 PM59 °FPassing clouds.7 mph63%29.65 "HgN/A
10:50 PM59 °FClear.6 mph68%29.65 "Hg10 mi
10:20 PM61 °FPassing clouds.8 mph68%29.65 "HgN/A
9:50 PM61 °FScattered clouds.8 mph68%29.62 "HgN/A
9:20 PM61 °FScattered clouds.7 mph68%29.62 "HgN/A
8:50 PM61 °FScattered clouds.6 mph68%29.62 "HgN/A
8:20 PM61 °FScattered clouds.6 mph63%29.62 "HgN/A
7:50 PM61 °FScattered clouds.6 mph63%29.62 "HgN/A
7:20 PM61 °FScattered clouds.7 mph59%29.62 "HgN/A
6:50 PM61 °FBroken clouds.8 mph63%29.65 "HgN/A
6:20 PM61 °FScattered clouds.8 mph68%29.65 "HgN/A
Weather by CustomWeather, © 2014

See weather overviewHow to use our weather pages